Regional Weather Roundup
Issued by NWS

Home | Current Version | Previous Version | Graphics & Text | Print | Product List | Glossary On
Versions: 1 2 3 4 5 6 7 8 9 10 11 12 13 14 15 16 17 18 19 20 21 22 23 24 25 26 27 28 29 30 31 32 33 34 35 36 37 38 39 40 41 42 43 44 45 46 47 48 49 50
000
ASUS43 KFSD 302102
RWRSD

WEATHER ROUNDUP FOR SOUTH DAKOTA
NATIONAL WEATHER SERVICE SIOUX FALLS SD
400 PM CDT SAT JUL 30 2016

NOTE: "FAIR" INDICATES FEW OR NO CLOUDS BELOW 12,000 FEET WITH NO
SIGNIFICANT WEATHER AND/OR OBSTRUCTIONS TO VISIBILITY.


SDZ001>005-009-010-012>017-302200-
NORTHWEST AND NORTH CENTRAL SOUTH DAKOTA

CITY           SKY/WX    TMP DP  RH WIND       PRES   REMARKS
BUFFALO          N/A     92  53  26 MISG      29.78F
FAITH            N/A     88  55  32 E13G18    29.85F
MOBRIDGE       SUNNY     93  53  25 SE14      29.82F
$$

SDZ012>016-024>037-041>051-057-063-072>074-302200-
SOUTHWEST AND SOUTH CENTRAL SOUTH DAKOTA

CITY           SKY/WX    TMP DP  RH WIND       PRES   REMARKS
RAPID CTY ARPT SUNNY     85  54  34 SE8       29.85F
PIERRE         MOSUNNY   89  61  38 SE14G24   29.83F
CUSTER         MOSUNNY   82  48  30 S9        30.03S
ELLSWORTH AFB  MOSUNNY   87  56  34 S9        29.85F
PHILIP         MOSUNNY   92  59  33 S14       29.83F
PINE RIDGE     SUNNY     91  59  33 S10G18    29.90F
WINNER         FAIR      87  63  44 SE18      29.90F
$$

SDZ004>011-016>023-039-040-302200-
NORTHEAST SOUTH DAKOTA

CITY           SKY/WX    TMP DP  RH WIND       PRES   REMARKS
ABERDEEN       SUNNY     84  58  40 SE14G22   29.91F
WATERTOWN      SUNNY     81  58  45 S13G20    29.97F
BROOKINGS      MOSUNNY   78  59  51 SE8       29.98S
SISSETON         N/A     80  59  48 SE13      29.94F
$$

SDZ017-020-022-023-036>040-048>070-302200-
SOUTHEAST SOUTH DAKOTA

CITY           SKY/WX    TMP DP  RH WIND       PRES   REMARKS
SIOUX FALLS    MOSUNNY   80  57  45 S10G17    29.97F
HURON          SUNNY     85  57  38 SE13G22   29.91F
CHAMBERLAIN    MOSUNNY   88  67  48 S10G24    29.90F
MITCHELL       MOSUNNY   84  60  44 S14G24    29.93F
YANKTON        MOSUNNY   82  61  47 S13       29.94S
$$

ABBREVIATIONS USED IN REMARKS
   TC - TEMPERATURE IN CELSIUS
  WCI - WIND CHILL INDEX
   HX - HEAT INDEX
  VSB - VISIBILITY




USA.gov is the U.S. government's official web portal to all federal, state and local government web resources and services.